Погода в Нелемном

Россия / Республика Саха (Якутия)     65°29′51″N   151°04′36″E
темп.,
°C
ветер,
м/с
пор.,
м/с
влажн.,
%
обл.,
%
осадки,
мм/ч
давл.,
гПа
погр.,
м
6 августа, пт
пт623:00+5сз61092100 0.2 1021336
02:00+5ссз71192100 0.0 1021371
05:00+5ссз61093100 0.0 1022392
08:00+6ссз81083100 0.0 1022761
11:00+8с8107799 0.0 1022775
14:00+10с7865100 0.0 10231072
17:00+12с675999 0.0 10231182
20:00+13ссз226389 0.0 102463
7 августа, сб
сб723:00+10с117357 0.0 102513
02:00+7с228347 0.0 102611
05:00+7с338924 0.0 102724
08:00+11с44735 0.0 1028372
11:00+15с446043 0.0 1027952
14:00+18с55535 0.0 10261125
17:00+19с675015 0.0 10251303
20:00+17с69575 0.0 1025373
8 августа, вс
вс823:00+11с447575 0.0 102640
02:00+9ссз588627 0.0 1026116
05:00+8с598955 0.0 1027137
08:00+12с5764100 0.0 1027363
11:00+16с56505 0.0 1026772
14:00+19с56335 0.0 10251049
17:00+20с45370 0.0 10231091
20:00+18с33510 0.0 102340
9 августа, пн
пн923:00+13с33650 0.0 102311
02:00+10ссз11715 0.0 102310
05:00+10ююз00731 0.0 102310
08:00+16ю22535 0.0 1022248
11:00+20ю33435 0.0 1021832
14:00+23ю44355 0.0 10191213
17:00+24ююв443341 0.0 10181301
20:00+21ююв44457 0.0 101838
10 августа, вт
вт1023:00+16ююв445560 0.0 101835
02:00+14ююв456168 0.0 101746
05:00+13ююв4563100 0.0 101644
08:00+18ю4753100 0.0 1017237
11:00+22ю444183 0.0 1016659
14:00+25ю21345 0.0 10151022
17:00+26юз012916 0.0 10141215
20:00+23в11455 0.0 101411